Вернуться в каталог

THORAD AGENA D DEB

АктивенSSO
NORAD 4977·DEBRIS·🇺🇸 United States

Запущен Apr 8, 1970 с Vandenberg Space Force Base

Loading…

Ближайшие Пролёты

TLE

Source: Space-Track
1 04977U 70025GX  26228.36726764  .00000017  00000-0  95999-4 0  9995
2 04977 100.1580  12.1503 0020802 110.0365 278.1933 13.52473971778113

Отслеживайте THORAD AGENA D DEB в реальном времени с AllMySat

Download on the App Store